SL-19 DEB, 23483

Orbit data source: Space-Track

SL-19 DEB, 23483 is space debris in LEO originally from a launch on Mon, 26 Dec 1994 UTC launched from the Tyuratam Missile And Space Complex (TTMTR). Debris objects in space refer to the collection of defunct objects orbiting the Earth. Examples of debris include non-operational satellites, rocket bodies, and fragments generated from explosions, collisions, or faulty payload assembly.

Loading next visibility...
Identifier
23483, 1994-085F
Orbit
LEO
Country
Flag of CISCIS
Related business
Manufacturer
Unknown
Mission
Spacecraft
Bus & Motor
Unknown
Mass
Unknown
Launch date (UTC)
1994-12-26 (31 years ago)
Launch vehicle
Unknown
Launch site
Tyuratam Missile And Space Complex (TTMTR)
Object type
Payload
Rocket body
Debris
Shape & HBR
Unknown shape, 0.9 m
Radar Cross Section
Medium (>0.1 m² and <1 m²)

Expand to show TLE details & history
Last TLE update: 12 hours ago

TLE from 12 hours ago
0 SL-19 DEB
1 23483U 94085F   25309.90856638 -.00000050  00000-0 -23869-3 0  9998
2 23483  64.7305  57.3053 0198282 207.5454 250.2665 11.22867017265427
Epoch: 2025-11-05T21:48Z
TLE epoch observation values (Epoch: 2025-11-05T21:48:20.135Z)
Latitude
64.24019°
Longitude
148.00173°
Altitude
2,115.269 km
Speed
6.833 km/s
True Right ascension
10h 41m 50s
True Declination
64° 07' 37"
Sunlit
Object was in daylight at epoch
Visualization orbit readout
Latitude
Unknown
Longitude
Unknown
Altitude
Unknown
Speed
Unknown
Apparent Right ascension
Unknown
Apparent Declination
Unknown
Sunlit
N/A
Visualization observer readout
Local Sidereal Time
05:55:43
Azimuth
Unknown
Elevation
Unknown
Doppler factor
Unknown
Orbital elements
Apogee altitude
2,211.651 km
Perigee altitude
1,877.634 km
Semi-major axis
8,422.779 km
Eccentricity
0.01983
Inclination
64.7305°
RAAN
57.3053°
Arg. of periapsis
207.5454°
True anomaly
248.14603°
Mean anomaly
250.2665°
Eccentric anomaly
249.20444°
Mean motion
2.80776 °/min
Orbital period
128.22 mins
BSTAR
-0.00023869
Loading maneuver chart data...
Computing Atmospheric mass density...
Loading historical data...
Loading historical data...
Loading historical data...
Loading historical data...
Loading historical data...
Loading historical data...
Loading historical data...

Documentation

Showing up to 5 results
|